Retour au catalogue

STARLINK-5610

ActifCommunicationsVLEO
NORAD 57244·PAYLOAD·🇺🇸 United States

Lancé Jul 7, 2023 depuis Vandenberg Space Force Base

Loading…

Prochains Passages (prochaines 24 heures)

TLE

FraisSource: CelesTrak SupGP

Époque: Sep 14, 2026, 21:51 UTC

1 57244C 23094AC  26257.91090278  .00019611  00000+0  71007-3 0  2570
2 57244  43.0040  30.7843 0002226 275.5978 118.8860 15.27578078    18

Suivez STARLINK-5610 en temps réel avec AllMySat

Download on the App Store